CW4541 Weather Reports


Display with metric or nautical units.
time (UTC)temp
F
wind
direction
speed
MPH
gust
MPH
rain 1hr
in
rain 24hr
in
rain mn
in
humidity
%
barometer
mb
20260903050606 57 28 0.0 1.0 0.00 0.00 0.00 59 1020.1
20260903040606 57 39 0.0 1.0 0.00 0.00 0.00 60 1020.0
20260903030606 60 30 0.0 0.0 0.00 0.00 0.00 52 1019.7
20260903030112 60 28 0.0 0.0 0.00 0.00 0.00 50 1019.6
20260903020607 63 20 0.0 3.0 0.00 0.00 0.00 48 1019.2
20260903020111 63 21 1.0 3.0 0.00 0.00 0.00 47 1019.1
20260903010606 67 59 3.0 13.0 0.00 0.00 0.00 45 1019.3
20260903010112 67 136 3.0 13.0 0.00 0.00 0.00 44 1019.2
20260903000606 70 20 3.0 9.0 0.00 0.00 0.00 38 1019.4
20260903000112 70 18 2.0 12.0 0.00 0.00 0.00 36 1019.4
20260902230606 78 202 2.0 8.0 0.00 0.00 0.00 26 1019.2
20260902230111 78 216 1.0 8.0 0.00 0.00 0.00 26 1019.1
20260902220605 77 169 1.0 7.0 0.00 0.00 0.00 27 1020.0
20260902220112 77 235 1.0 7.0 0.00 0.00 0.00 28 1020.1
20260902210606 76 20 2.0 10.0 0.00 0.00 0.00 26 1020.7
20260902210111 76 20 3.0 10.0 0.00 0.00 0.00 26 1020.6
20260902200606 73 19 1.0 10.0 0.00 0.00 0.00 30 1021.0
20260902200111 74 14 1.0 10.0 0.00 0.00 0.00 29 1021.2
20260902190605 73 13 3.0 9.0 0.00 0.00 0.00 33 1022.0
20260902190111 73 13 2.0 9.0 0.00 0.00 0.00 34 1021.9
20260902180606 70 14 3.0 10.0 0.00 0.00 0.00 37 1022.6
20260902180111 71 14 4.0 10.0 0.00 0.00 0.00 39 1022.8
20260902170606 70 16 2.0 14.0 0.00 0.00 0.00 41 1022.7
20260902160606 67 15 2.0 10.0 0.00 0.00 0.00 46 1022.8
20260902160111 67 15 2.0 10.0 0.00 0.00 0.00 47 1022.8
20260902150605 64 14 2.0 6.0 0.00 0.00 0.00 52 1023.7
20260902150111 63 16 1.0 8.0 0.00 0.00 0.00 54 1023.7
20260902140605 56 197 0.0 3.0 0.00 0.00 0.00 67 1023.4
20260902130605 50 199 0.0 1.0 0.00 0.00 0.00 75 1023.6
20260902130111 50 202 0.0 1.0 0.00 0.00 0.00 74 1023.6
20260902110605 51 213 0.0 1.0 0.00 0.00 0.00 73 1023.3
20260902110110 51 213 0.0 1.0 0.00 0.00 0.00 73 1023.3
20260902100605 52 210 0.0 0.0 0.00 0.01 0.00 71 1023.1
20260902100111 52 212 0.0 0.0 0.00 0.01 0.00 70 1023.1
20260902090605 54 229 0.0 0.0 0.00 0.01 0.00 66 1023.1
20260902090110 54 231 0.0 0.0 0.00 0.01 0.00 65 1023.2
20260902080605 58 38 0.0 0.0 0.00 0.01 0.00 59 1023.3
20260902080111 58 39 0.0 0.0 0.00 0.01 0.00 59 1023.4
20260902070605 58 38 0.0 0.0 0.00 0.01 0.00 58 1023.4
20260902070110 58 36 0.0 0.0 0.00 0.01 0.00 58 1023.4
20260902060110 59 181 0.0 1.0 0.00 0.01 0.00 55 1024.0